User: anonymous   Login
Location: Riverside Cemetery
(38.3047°N, 99.7773°W)
Time: 23:03:13
(UTC+00:00)
Language:

CSL-04 Rocket - Orbit

View from above orbital plane
View from above orbital plane
View from above satellite
View from above satellite

Ground track
Ground track

The orbit data is extracted from the following two-line orbital elements,

1 25732U 99025C   20337.36617079 -.00000010  00000-0  17057-4 0  9994
2 25732  98.9277   7.1269 0038348  92.0314 279.5177 14.17684688115618
Epoch (UTC): 02 December 2020 08:47:17
Eccentricity: 0.0038348
inclination: 98.9277°
perigee height: 805 km
apogee height: 861 km
right ascension of ascending node: 7.1269°
argument of perigee: 92.0314°
revolutions per day: 14.17684688
mean anomaly at epoch: 279.5177°
orbit number at epoch: 11561

The dashed part of the orbit path shows where the satellite is in the earth's shadow,  

DLR